[[{"header":{"parameterUnit":"m.s-1","parameterCategory":2,"la1":30.2992,"la2":30.254,"lo1":-89.0895,"lo2":-89.0443,"dy":0.0025,"dx":0.0025,"nx":19,"ny":19,"refTime":"2026-05-07T09:00:00:Z","depth":"0","parameterNumber":2,"parameterNumberName":"U-component_of_CURRENTS"},"data":[0,0,0,-0.3275,-0.3277,-0.3362,-0.3362,-0.3365,-0.3365,0,0,0,0,0,0,0,0,0,0,0,-0.323,-0.323,-0.3275,-0.3277,-0.3362,-0.3362,-0.3365,-0.3365,0,0,0,0,0,0,0,0,0,0,0,-0.323,-0.323,-0.323,-0.3277,-0.3362,-0.3362,-0.3365,-0.3329,0,0,0,0,0,0,0,0,0,0,-0.326,-0.3236,-0.323,-0.323,-0.3278,-0.3361,-0.3362,-0.3328,-0.3331,-0.3294,0,-0.3294,0,-0.333,-0.3362,-0.3362,0,0,0,-0.3283,-0.3234,-0.3253,-0.323,-0.3278,-0.3361,-0.3325,-0.3331,-0.3334,-0.3297,-0.3295,-0.3296,-0.333,-0.3362,-0.3361,-0.3379,-0.3379,0,0,-0.3279,-0.3251,-0.3251,-0.3254,-0.328,-0.3322,-0.3328,-0.3334,-0.3327,-0.3295,-0.3297,-0.333,-0.3361,-0.3361,-0.3378,-0.3379,0,0,0,-0.3261,-0.3247,-0.3269,-0.3252,-0.3277,-0.3325,-0.3331,-0.3328,-0.3333,-0.3298,-0.333,-0.3361,-0.3361,-0.3378,-0.3378,-0.3494,0,0,0,-0.3258,-0.3237,-0.3266,-0.3252,-0.3277,-0.332,-0.3324,-0.3333,-0.3335,-0.333,-0.3361,-0.336,-0.3377,-0.3378,-0.349,-0.355,0,0,0,-0.323,-0.3235,-0.3238,-0.325,-0.3286,-0.3321,-0.3329,-0.3335,-0.3354,-0.3362,-0.336,-0.3377,-0.3378,-0.3486,-0.3543,-0.3439,0,0,0,-0.3209,-0.3201,-0.3237,-0.3254,-0.3285,-0.3386,-0.3329,-0.3388,-0.3403,-0.3361,-0.3377,-0.3378,-0.3485,-0.3538,-0.3437,-0.2808,-0.2766,0,0,-0.3189,-0.3198,-0.3216,-0.325,-0.3345,-0.3376,-0.3473,-0.3452,-0.3403,-0.3367,-0.3368,-0.3491,-0.3542,-0.3438,-0.2878,-0.2832,0,0,0,-0.3206,-0.3231,-0.3259,-0.3329,-0.34,-0.3504,-0.3516,-0.3506,-0.3495,-0.3415,-0.3483,-0.3511,-0.3441,-0.3058,-0.3024,-0.2914,-0.3384,-0.3384,-0.3384,-0.3181,-0.3249,-0.3322,-0.3425,-0.3495,-0.3595,-0.3649,-0.3639,-0.3569,-0.3576,-0.36,-0.3599,-0.3195,-0.316,-0.3061,-0.3586,-0.3587,-0.3587,-0.3587,-0.3223,-0.3234,-0.34,-0.3485,-0.3604,-0.3697,-0.3774,-0.3754,-0.3725,-0.3696,-0.3619,-0.3194,-0.3127,-0.3035,-0.3595,-0.3593,-0.3593,-0.3592,-0.3591,-0.3191,-0.3181,-0.331,-0.3461,-0.362,-0.3735,-0.3738,-0.3846,-0.3803,-0.3811,-0.3218,-0.3206,-0.3117,-0.3697,-0.3697,-0.3697,-0.3697,-0.3697,-0.3697,-0.3009,-0.3141,-0.3192,-0.3408,-0.3481,-0.3602,-0.3709,-0.3597,-0.3362,-0.3278,-0.3269,-0.3055,-0.3629,-0.3616,-0.3694,-0.3695,-0.3695,-0.3695,-0.3696,-0.2738,-0.2851,-0.2915,-0.2999,-0.3178,-0.3066,-0.3258,-0.2821,-0.2771,-0.2492,-0.2435,-0.2925,-0.2794,-0.2812,-0.2775,-0.2633,-0.2633,-0.2633,-0.2632,-0.2487,-0.258,-0.2569,-0.2631,-0.2694,-0.2769,-0.2188,-0.1936,-0.178,-0.1691,-0.1959,-0.1814,-0.1862,-0.1679,-0.1722,-0.1666,-0.1246,-0.1246,-0.1245,-0.2224,-0.2309,-0.2182,-0.2356,-0.2425,-0.2259,-0.1587,-0.1065,-0.0954,-0.1214,-0.1961,-0.2019,-0.1856,-0.1939,-0.1691,-0.176,-0.1682,0,0]},{"header":{"parameterUnit":"m.s-1","parameterCategory":2,"la1":30.2992,"la2":30.254,"lo1":-89.0895,"lo2":-89.0443,"dy":0.0025,"dx":0.0025,"nx":19,"ny":19,"refTime":"2026-05-07T09:00:00:Z","depth":"0","parameterNumber":3,"parameterNumberName":"V-component_of_CURRENTS"},"data":[0,0,0,-0.1302,-0.1299,-0.1144,-0.1143,-0.0955,-0.0953,0,0,0,0,0,0,0,0,0,0,0,-0.1361,-0.136,-0.1302,-0.1298,-0.1144,-0.1143,-0.0955,-0.0953,0,0,0,0,0,0,0,0,0,0,0,-0.1362,-0.1361,-0.1359,-0.1298,-0.1144,-0.1143,-0.0956,-0.1069,0,0,0,0,0,0,0,0,0,0,-0.1218,-0.132,-0.1361,-0.1359,-0.1297,-0.1144,-0.1143,-0.1075,-0.1062,-0.1028,0,-0.1006,0,-0.0973,-0.0941,-0.094,0,0,0,-0.1296,-0.1331,-0.124,-0.1359,-0.1295,-0.1144,-0.1213,-0.1067,-0.1053,-0.1012,-0.1003,-0.0996,-0.0969,-0.094,-0.0939,-0.096,-0.0962,0,0,-0.1304,-0.1378,-0.125,-0.1231,-0.1257,-0.1218,-0.1208,-0.1059,-0.1075,-0.1003,-0.0991,-0.0966,-0.0939,-0.0937,-0.0958,-0.096,0,0,0,-0.133,-0.1385,-0.1298,-0.1239,-0.1209,-0.1213,-0.1202,-0.1082,-0.1039,-0.0989,-0.0964,-0.0938,-0.0935,-0.0957,-0.0959,-0.1201,0,0,0,-0.1335,-0.1398,-0.1302,-0.135,-0.1212,-0.1154,-0.123,-0.105,-0.1031,-0.0965,-0.0938,-0.0934,-0.0955,-0.0958,-0.119,-0.1184,0,0,0,-0.1368,-0.1404,-0.1374,-0.1354,-0.1281,-0.1155,-0.1106,-0.1045,-0.1016,-0.094,-0.0933,-0.0954,-0.0957,-0.1181,-0.1171,-0.0924,0,0,0,-0.1462,-0.1505,-0.1377,-0.1417,-0.1282,-0.1308,-0.1106,-0.1088,-0.1043,-0.0937,-0.0955,-0.0959,-0.1178,-0.1164,-0.0922,-0.0549,-0.0528,0,0,-0.1579,-0.1522,-0.1541,-0.1422,-0.1471,-0.1329,-0.142,-0.1232,-0.1088,-0.0999,-0.0999,-0.1194,-0.1171,-0.0923,-0.0769,-0.0739,0,0,0,-0.1618,-0.1663,-0.1649,-0.1634,-0.157,-0.1563,-0.1438,-0.1358,-0.1254,-0.1074,-0.1203,-0.1178,-0.1013,-0.0788,-0.0767,-0.0487,-0.0976,-0.0976,-0.0976,-0.1973,-0.1867,-0.1943,-0.1858,-0.1852,-0.174,-0.1687,-0.1558,-0.1449,-0.144,-0.1389,-0.1377,-0.1157,-0.1132,-0.086,-0.146,-0.1461,-0.1462,-0.1462,-0.2206,-0.2197,-0.2146,-0.2169,-0.2082,-0.213,-0.1947,-0.1828,-0.1604,-0.1607,-0.1434,-0.1076,-0.1121,-0.0838,-0.1478,-0.1475,-0.1473,-0.1472,-0.1471,-0.2387,-0.2344,-0.2376,-0.2369,-0.2388,-0.2283,-0.2053,-0.1943,-0.1732,-0.1636,-0.1095,-0.1086,-0.0789,-0.1479,-0.1478,-0.1477,-0.1476,-0.1476,-0.1475,-0.2456,-0.2484,-0.2519,-0.2537,-0.2508,-0.2372,-0.2071,-0.1784,-0.1363,-0.1205,-0.1198,-0.0742,-0.1372,-0.1318,-0.146,-0.1463,-0.1465,-0.1466,-0.1467,-0.2445,-0.2493,-0.2539,-0.2536,-0.2404,-0.2098,-0.1879,-0.1178,-0.0871,-0.0578,-0.0279,-0.0877,-0.0662,-0.0675,-0.0599,-0.0543,-0.0543,-0.0543,-0.0543,-0.2412,-0.2451,-0.2447,-0.2386,-0.2187,-0.1922,-0.1225,-0.073,-0.0086,0.0245,0.0243,0.023,0.0181,0.0442,0.0404,0.0501,0.0833,0.0835,0.0836,-0.2327,-0.2377,-0.2306,-0.2294,-0.2052,-0.1585,-0.0952,-0.0455,0.0471,0.0902,0.0551,0.0493,0.0462,0.0363,0.0755,0.068,0.0833,0,0]}],[{"header":{"parameterUnit":"m.s-1","parameterCategory":2,"la1":30.2992,"la2":30.254,"lo1":-89.0895,"lo2":-89.0443,"dy":0.0025,"dx":0.0025,"nx":19,"ny":19,"refTime":"2026-05-07T09:00:00:Z","depth":"2","parameterNumber":2,"parameterNumberName":"U-component_of_CURRENTS"},"data":[0,0,0,-0.2316,-0.2318,-0.2404,-0.2405,-0.2393,-0.2392,0,0,0,0,0,0,0,0,0,0,0,-0.2278,-0.2279,-0.2316,-0.2318,-0.2404,-0.2405,-0.2393,-0.2392,0,0,0,0,0,0,0,0,0,0,0,-0.2278,-0.2279,-0.2279,-0.2319,-0.2404,-0.2405,-0.2393,-0.2357,0,0,0,0,0,0,0,0,0,0,-0.2289,-0.2265,-0.2278,-0.2279,-0.2319,-0.2404,-0.2405,-0.2357,-0.236,-0.232,0,-0.2335,0,-0.2366,-0.2389,-0.2389,0,0,0,-0.2314,-0.2263,-0.2296,-0.2279,-0.232,-0.2404,-0.2364,-0.2359,-0.2362,-0.2323,-0.2336,-0.2337,-0.2366,-0.2389,-0.2389,-0.2415,-0.2416,0,0,-0.231,-0.2282,-0.2294,-0.2297,-0.2342,-0.2362,-0.2367,-0.2362,-0.2356,-0.2336,-0.2337,-0.2366,-0.2389,-0.2388,-0.2415,-0.2415,0,0,0,-0.2299,-0.2278,-0.2313,-0.2297,-0.2324,-0.2364,-0.2371,-0.2356,-0.2371,-0.2337,-0.2366,-0.2388,-0.2388,-0.2414,-0.2415,-0.2482,0,0,0,-0.2296,-0.2273,-0.2311,-0.2294,-0.2325,-0.2356,-0.2364,-0.2371,-0.2372,-0.2366,-0.2388,-0.2387,-0.2413,-0.2414,-0.2478,-0.2548,0,0,0,-0.2274,-0.2271,-0.2283,-0.2293,-0.2334,-0.2358,-0.2373,-0.2373,-0.2389,-0.2389,-0.2387,-0.2413,-0.2414,-0.2475,-0.2541,-0.2521,0,0,0,-0.224,-0.225,-0.2282,-0.2324,-0.2334,-0.2407,-0.2373,-0.2423,-0.2433,-0.2388,-0.2413,-0.2415,-0.2474,-0.2537,-0.2518,-0.2223,-0.2212,0,0,-0.2234,-0.2249,-0.2284,-0.2315,-0.2382,-0.2395,-0.2467,-0.2467,-0.2438,-0.2403,-0.2405,-0.2479,-0.2541,-0.252,-0.2313,-0.2299,0,0,0,-0.2273,-0.2283,-0.2318,-0.2367,-0.2429,-0.2498,-0.2502,-0.2502,-0.2508,-0.2452,-0.2492,-0.253,-0.2514,-0.233,-0.232,-0.2422,-0.2422,-0.2422,-0.2422,-0.217,-0.2253,-0.2308,-0.2408,-0.2464,-0.2555,-0.2605,-0.2601,-0.2554,-0.2576,-0.2592,-0.2642,-0.2448,-0.2437,-0.2579,-0.2579,-0.258,-0.258,-0.258,-0.2167,-0.221,-0.2312,-0.2397,-0.2496,-0.2553,-0.2667,-0.268,-0.2707,-0.2671,-0.2649,-0.2421,-0.2429,-0.2585,-0.2584,-0.2584,-0.2583,-0.2583,-0.2582,-0.2103,-0.2136,-0.2214,-0.233,-0.2453,-0.2587,-0.2665,-0.281,-0.2772,-0.2802,-0.2531,-0.2525,-0.2666,-0.2758,-0.2758,-0.2759,-0.2759,-0.2759,-0.2759,-0.2002,-0.2085,-0.2122,-0.2277,-0.2375,-0.2516,-0.272,-0.2716,-0.2678,-0.261,-0.2605,-0.2702,-0.2696,-0.2676,-0.2763,-0.2762,-0.2762,-0.2761,-0.2761,-0.1913,-0.1946,-0.2021,-0.2111,-0.229,-0.2277,-0.252,-0.2373,-0.2428,-0.228,-0.2454,-0.246,-0.2404,-0.2406,-0.2378,-0.2384,-0.2384,-0.2384,-0.2384,-0.1821,-0.1847,-0.1936,-0.203,-0.2111,-0.2175,-0.1866,-0.1792,-0.1917,-0.1967,-0.1986,-0.1867,-0.1889,-0.18,-0.1817,-0.1775,-0.1625,-0.1624,-0.1623,-0.1743,-0.182,-0.1831,-0.1915,-0.2035,-0.1874,-0.1418,-0.1147,-0.1285,-0.1601,-0.1942,-0.2316,-0.2186,-0.2205,-0.2101,-0.2115,-0.2062,0,0]},{"header":{"parameterUnit":"m.s-1","parameterCategory":2,"la1":30.2992,"la2":30.254,"lo1":-89.0895,"lo2":-89.0443,"dy":0.0025,"dx":0.0025,"nx":19,"ny":19,"refTime":"2026-05-07T09:00:00:Z","depth":"2","parameterNumber":3,"parameterNumberName":"V-component_of_CURRENTS"},"data":[0,0,0,-0.0258,-0.0257,-0.0159,-0.0158,0.0019,0.0021,0,0,0,0,0,0,0,0,0,0,0,-0.0289,-0.0289,-0.0258,-0.0257,-0.0159,-0.0158,0.0019,0.0021,0,0,0,0,0,0,0,0,0,0,0,-0.0289,-0.0289,-0.0289,-0.0257,-0.0159,-0.0158,0.0019,-0.0061,0,0,0,0,0,0,0,0,0,0,-0.016,-0.0197,-0.0289,-0.0289,-0.0256,-0.016,-0.0158,-0.0065,-0.0056,-0.0019,0,-0.0023,0,-0.001,0.0031,0.0032,0,0,0,-0.0228,-0.0204,-0.0194,-0.0289,-0.0256,-0.016,-0.0195,-0.006,-0.005,-0.0007,-0.002,-0.0014,-0.0007,0.0032,0.0033,0.0154,0.0154,0,0,-0.0233,-0.0247,-0.0202,-0.0189,-0.0253,-0.0198,-0.0192,-0.0054,-0.0043,-0.002,-0.001,-0.0004,0.0033,0.0034,0.0154,0.0154,0,0,0,-0.0268,-0.0251,-0.0244,-0.0196,-0.0189,-0.0196,-0.0189,-0.0048,-0.0051,-0.0008,-0.0002,0.0034,0.0036,0.0154,0.0154,0.0111,0,0,0,-0.027,-0.0274,-0.0247,-0.0251,-0.0193,-0.0123,-0.0186,-0.006,-0.0045,-0.0003,0.0034,0.0037,0.0153,0.0154,0.0111,0.008,0,0,0,-0.029,-0.0275,-0.0275,-0.0253,-0.0226,-0.0125,-0.0118,-0.0056,-0.0042,0.0032,0.0038,0.0153,0.0154,0.0112,0.0082,0.0228,0,0,0,-0.029,-0.0316,-0.0276,-0.031,-0.0227,-0.0189,-0.0119,-0.0072,-0.0018,0.0035,0.0153,0.0154,0.0112,0.0083,0.0226,0.0241,0.025,0,0,-0.0331,-0.032,-0.0348,-0.0312,-0.0316,-0.0199,-0.0149,-0.0054,0.0007,0.0117,0.012,0.0111,0.0082,0.0228,0.0264,0.0271,0,0,0,-0.0368,-0.0388,-0.0384,-0.0378,-0.0325,-0.0233,-0.0123,-0.0052,0.0052,0.0036,0.0131,0.0115,0.0209,0.0215,0.0221,0.0156,0.0156,0.0156,0.0156,-0.0398,-0.041,-0.0445,-0.0432,-0.0385,-0.0239,-0.0147,-0.002,0.0034,0.0075,0.0095,0.0189,0.019,0.0196,0.012,0.012,0.012,0.0119,0.0119,-0.0481,-0.0521,-0.0498,-0.0543,-0.0437,-0.0365,-0.0164,-0.0082,0.0111,0.009,0.0187,0.0183,0.0201,0.0116,0.0117,0.0117,0.0118,0.0118,0.0118,-0.0517,-0.0543,-0.0576,-0.0618,-0.0571,-0.045,-0.0339,-0.0146,0.0054,0.0138,0.0267,0.0267,0.0208,0.0229,0.023,0.023,0.0231,0.0231,0.0231,-0.0547,-0.0581,-0.0661,-0.07,-0.0713,-0.0665,-0.0417,-0.0235,0.0096,0.0231,0.0233,0.0229,0.0225,0.0219,0.0239,0.0237,0.0236,0.0236,0.0235,-0.0634,-0.0647,-0.0757,-0.0806,-0.0854,-0.0829,-0.0601,-0.0165,0.0108,0.0312,0.0344,0.0339,0.0384,0.0378,0.0377,0.0438,0.0438,0.0438,0.0439,-0.0683,-0.0703,-0.0835,-0.0908,-0.0971,-0.0893,-0.0629,-0.0236,0.0193,0.0266,0.0272,0.0185,0.0183,0.0212,0.021,0.0203,0.0219,0.0218,0.0217,-0.0754,-0.0775,-0.0862,-0.0932,-0.1016,-0.0953,-0.0687,-0.0157,0.0178,0.0199,0.013,0.0444,0.0332,0.0321,0.0378,0.037,0.0365,0,0]}],[{"header":{"parameterUnit":"m.s-1","parameterCategory":2,"la1":30.2992,"la2":30.254,"lo1":-89.0895,"lo2":-89.0443,"dy":0.0025,"dx":0.0025,"nx":19,"ny":19,"refTime":"2026-05-07T09:00:00:Z","depth":"4","parameterNumber":2,"parameterNumberName":"U-component_of_CURRENTS"},"data":[0,0,0,-0.164,-0.1644,-0.1807,-0.1808,-0.1904,-0.1904,0,0,0,0,0,0,0,0,0,0,0,-0.1589,-0.159,-0.164,-0.1644,-0.1807,-0.1808,-0.1904,-0.1904,0,0,0,0,0,0,0,0,0,0,0,-0.1588,-0.159,-0.1592,-0.1645,-0.1807,-0.1808,-0.1904,-0.181,0,0,0,0,0,0,0,0,0,0,-0.1665,-0.1636,-0.159,-0.1592,-0.1645,-0.1807,-0.1808,-0.1806,-0.1815,-0.1796,0,-0.1831,0,-0.1863,-0.1908,-0.1908,0,0,0,-0.1649,-0.1629,-0.1668,-0.1592,-0.1647,-0.1807,-0.1735,-0.1812,-0.1822,-0.1807,-0.1832,-0.1837,-0.1865,-0.1908,-0.1908,-0.1972,-0.1973,0,0,-0.164,-0.162,-0.1661,-0.1675,-0.1699,-0.173,-0.174,-0.182,-0.1834,-0.1833,-0.1839,-0.1866,-0.1909,-0.1909,-0.1972,-0.1973,0,0,0,-0.1611,-0.1614,-0.1654,-0.167,-0.1705,-0.1734,-0.1746,-0.1831,-0.1844,-0.1841,-0.1868,-0.1909,-0.1909,-0.1972,-0.1972,-0.2,0,0,0,-0.1605,-0.1597,-0.165,-0.164,-0.1705,-0.1786,-0.1755,-0.1838,-0.1849,-0.1867,-0.1909,-0.191,-0.1971,-0.1972,-0.1998,-0.2008,0,0,0,-0.158,-0.1594,-0.1615,-0.1639,-0.1707,-0.1786,-0.1805,-0.1842,-0.1864,-0.1908,-0.191,-0.1971,-0.1972,-0.1997,-0.2006,-0.2002,0,0,0,-0.155,-0.1586,-0.1615,-0.1666,-0.1705,-0.1795,-0.1805,-0.1884,-0.1927,-0.1909,-0.1971,-0.1972,-0.1997,-0.2004,-0.2001,-0.1696,0,0,0,-0.1572,-0.1588,-0.1618,-0.1647,-0.1729,-0.1772,-0.1852,-0.1916,-0.1925,-0.1937,-0.194,-0.1999,-0.2005,-0.2002,-0.1743,0,0,0,0,-0.1609,-0.1632,-0.1663,-0.1722,-0.1786,-0.1855,-0.1917,-0.1936,-0.1985,-0.1954,-0.2007,-0.201,-0.2007,-0.1826,-0.1976,-0.1976,-0.1976,-0.1976,-0.1976,-0.1594,-0.164,-0.1695,-0.1764,-0.1824,-0.1917,-0.1967,-0.2001,-0.2005,-0.203,-0.2038,-0.2063,-0.1874,-0.2046,-0.2046,-0.2046,-0.2046,-0.2046,-0.2046,-0.1613,-0.1626,-0.1712,-0.1782,-0.1857,-0.1926,-0.2006,-0.2033,-0.2073,-0.2068,-0.2064,-0.1875,-0.2049,-0.2049,-0.2048,-0.2048,-0.2048,-0.2048,-0.2047,-0.1573,-0.158,-0.1658,-0.1743,-0.1822,-0.191,-0.1929,-0.2026,-0.2088,-0.211,-0.1896,-0.2076,-0.2066,-0.2102,-0.2102,-0.2102,-0.2102,-0.2102,-0.2102,-0.1472,-0.1551,-0.1562,-0.1675,-0.1685,-0.1742,-0.1876,-0.1901,-0.2014,-0.1891,-0.2113,-0.2081,-0.208,-0.2069,-0.2103,-0.2103,-0.2103,-0.2103,-0.2103,-0.1376,-0.1406,-0.1395,-0.1404,-0.1425,-0.1452,-0.1632,-0.1678,-0.1685,-0.1661,-0.1763,-0.1779,-0.1736,-0.1743,-0.1718,-0.165,-0.1646,-0.1642,0,-0.1259,-0.129,-0.1198,-0.1135,-0.1089,-0.1235,-0.1174,-0.1288,-0.1444,-0.1378,-0.1685,-0.1798,-0.1809,-0.1758,-0.1758,-0.1726,0,0,0,-0.1162,-0.1139,-0.1014,-0.098,-0.0903,-0.0976,-0.1146,-0.1119,-0.1425,-0.1385,-0.1546,-0.1571,-0.1881,-0.2105,-0.2078,-0.2076,-0.2057,0,0]},{"header":{"parameterUnit":"m.s-1","parameterCategory":2,"la1":30.2992,"la2":30.254,"lo1":-89.0895,"lo2":-89.0443,"dy":0.0025,"dx":0.0025,"nx":19,"ny":19,"refTime":"2026-05-07T09:00:00:Z","depth":"4","parameterNumber":3,"parameterNumberName":"V-component_of_CURRENTS"},"data":[0,0,0,-0.0087,-0.0087,-0.0027,-0.0026,0.0085,0.0086,0,0,0,0,0,0,0,0,0,0,0,-0.0109,-0.0109,-0.0087,-0.0086,-0.0027,-0.0026,0.0085,0.0086,0,0,0,0,0,0,0,0,0,0,0,-0.0109,-0.0109,-0.0109,-0.0086,-0.0027,-0.0026,0.0085,0.0035,0,0,0,0,0,0,0,0,0,0,-0.0025,-0.0053,-0.0109,-0.0109,-0.0086,-0.0027,-0.0026,0.0033,0.0039,0.0063,0,0.0058,0,0.0068,0.0093,0.0093,0,0,0,-0.0068,-0.0058,-0.0049,-0.0109,-0.0086,-0.0027,-0.0049,0.0036,0.0042,0.007,0.006,0.0064,0.007,0.0093,0.0094,0.0217,0.0217,0,0,-0.0072,-0.0085,-0.0053,-0.0045,-0.0087,-0.0051,-0.0047,0.004,0.0044,0.006,0.0066,0.0072,0.0094,0.0095,0.0216,0.0217,0,0,0,-0.0093,-0.0088,-0.008,-0.005,-0.0046,-0.0049,-0.0045,0.0041,0.004,0.0068,0.0073,0.0095,0.0096,0.0216,0.0216,0.0165,0,0,0,-0.0094,-0.0101,-0.0082,-0.0088,-0.0048,-0.0006,-0.0046,0.0034,0.0044,0.0073,0.0095,0.0097,0.0215,0.0216,0.0165,0.0083,0,0,0,-0.0108,-0.0102,-0.0103,-0.0089,-0.0072,-0.0007,-0.0001,0.0037,0.0047,0.0093,0.0097,0.0214,0.0216,0.0165,0.0086,0.0064,0,0,0,-0.0113,-0.013,-0.0103,-0.0114,-0.0073,-0.0032,-0.0002,0.004,0.0077,0.0095,0.0215,0.0216,0.0165,0.0088,0.0065,-0.0019,0,0,0,-0.0139,-0.0133,-0.0139,-0.0114,-0.0114,-0.0038,0.0003,0.006,0.0112,0.019,0.0193,0.0165,0.0086,0.0064,0.0069,0,0,0,0,-0.015,-0.0169,-0.0156,-0.0154,-0.0102,-0.0062,0.0021,0.008,0.0159,0.0137,0.0209,0.0161,0.0148,0.0108,0.0223,0.0223,0.0223,0.0223,0.0223,-0.0207,-0.0198,-0.0224,-0.0206,-0.0169,-0.0063,-0.0006,0.0091,0.0158,0.02,0.0154,0.0141,0.0104,0.0227,0.0227,0.0227,0.0227,0.0227,0.0227,-0.0287,-0.0315,-0.0303,-0.0332,-0.0267,-0.0219,-0.006,0.0016,0.0111,0.0168,0.016,0.0101,0.0223,0.0224,0.0224,0.0225,0.0225,0.0225,0.0225,-0.034,-0.0358,-0.0386,-0.0436,-0.0433,-0.0335,-0.0316,-0.0159,0.0004,0.0021,-0.0011,0.0095,0.0057,0.0026,0.0025,0.0025,0.0025,0.0024,0.0024,-0.0382,-0.0414,-0.0496,-0.0545,-0.0582,-0.0583,-0.0467,-0.0397,-0.0218,-0.0117,-0.0016,0.0073,0.0079,0.0047,0.0017,0.0018,0.0019,0.002,0.002,-0.0458,-0.0472,-0.0592,-0.0659,-0.0759,-0.0762,-0.0687,-0.0537,-0.0466,-0.0355,-0.0163,-0.0152,-0.0156,-0.0144,-0.0185,-0.0285,-0.0286,-0.0287,0,-0.0501,-0.0521,-0.0678,-0.0797,-0.0886,-0.086,-0.0812,-0.0713,-0.0485,-0.0462,-0.0438,-0.0227,-0.0215,-0.0225,-0.0217,-0.0268,0,0,0,-0.0565,-0.0597,-0.0716,-0.0833,-0.0939,-0.0854,-0.0794,-0.0741,-0.0508,-0.0475,-0.032,-0.0311,-0.0211,-0.0002,0.0017,0.0025,-0.0027,0,0]}]]